Location: Hartha
(51.1030°N, 12.9600°E)
Time: 03:46:59
(UTC+02:00)

ISS - Visible Passes

Search period start: 17 May 2021 00:00
Search period end: 27 May 2021 00:00
Orbit: 417 x 422 km, 51.6° (Epoch: 16 May)

Date Brightness Start Highest point End Pass type
(mag) Time Alt. Az. Time Alt. Az. Time Alt. Az.
17 May -3.7 00:29:58 10° W 00:33:21 79° N 00:36:45 10° E visible
17 May -3.9 02:06:50 10° W 02:10:11 65° SSW 02:13:33 10° ESE visible
17 May -2.3 03:44:07 10° W 03:46:34 19° SW 03:49:00 10° S visible
17 May -3.5 22:05:56 10° SW 22:09:09 44° SSE 22:12:24 10° E visible
17 May -3.8 23:42:30 10° W 23:45:53 83° N 23:49:16 10° E visible
18 May -3.9 01:19:22 10° W 01:22:45 81° S 01:22:53 78° SSE visible
18 May -3.8 22:55:01 10° WSW 22:58:24 89° S 23:01:48 10° E visible
19 May -3.8 00:31:54 10° W 00:35:17 88° N 00:36:28 38° E visible
19 May -1.4 02:08:48 10° W 02:09:22 14° W 02:09:22 14° W visible
19 May -3.8 22:07:35 10° WSW 22:10:57 75° SSE 22:14:19 10° E visible
19 May -3.7 23:44:25 10° W 23:47:48 81° N 23:50:16 17° E visible
20 May -2.5 01:21:17 10° W 01:23:12 29° W 01:23:12 29° W visible
20 May -3.7 22:56:56 10° W 23:00:19 79° N 23:03:41 10° E visible
21 May -3.9 00:33:47 10° W 00:37:06 65° SSW 00:37:06 65° SSW visible
21 May -3.7 22:09:26 10° W 22:12:49 82° N 22:16:12 10° E visible
21 May -3.9 23:46:18 10° W 23:49:41 80° SSW 23:51:03 33° ESE visible
22 May -1.4 01:23:20 10° W 01:23:59 14° W 01:23:59 14° W visible
22 May -3.8 22:58:50 10° W 23:02:13 88° N 23:05:02 14° E visible
23 May -2.6 00:35:43 10° W 00:37:58 30° WSW 00:37:58 30° WSW visible
23 May -3.7 22:11:20 10° W 22:14:43 81° N 22:18:06 10° E visible
23 May -3.5 23:48:11 10° W 23:51:28 49° SSW 23:51:59 44° S visible
24 May -3.8 23:00:41 10° W 23:04:02 65° SSW 23:06:01 22° ESE visible
25 May -1.5 00:37:59 10° W 00:38:57 14° WSW 00:38:57 14° WSW visible
25 May -3.8 22:13:11 10° W 22:16:34 80° SSW 22:19:56 10° ESE visible
25 May -2.5 23:50:13 10° W 23:53:00 26° SW 23:53:00 26° SW visible
26 May -3.0 23:02:35 10° W 23:05:43 36° SSW 23:07:05 25° SSE visible
